Regional Weather Roundup
Issued by NWS

Home | Current Version | Previous Version | Text Only | Print | Product List | Glossary Off
Versions: 1 2 3 4 5 6 7 8 9 10 11 12 13 14 15 16 17 18 19 20 21 22 23 24 25 26 27 28 29 30 31 32 33 34 35 36 37 38 39 40 41 42 43 44 45 46 47 48 49 50

000
ASUS43 KBIS 212210
RWRND

NORTH DAKOTA REGIONAL WEATHER ROUNDUP
NATIONAL WEATHER SERVICE BISMARCK ND
500 PM CDT MON AUG 21 2017

NOTE: "FAIR" INDICATES FEW OR NO CLOUDS BELOW 12,000 FEET WITH NO
SIGNIFICANT WEATHER AND/OR OBSTRUCTIONS TO VISIBILITY.


NDZ001>003-009>011-017-212300-
NORTHWEST NORTH DAKOTA

CITY           SKY/WX    TMP DP  RH WIND       PRES   REMARKS
WILLISTON      SUNNY     76  37  24 NW18G24   30.10S
MINOT          SUNNY     76  40  27 NW17G30   30.01R
MINOT AFB      MOSUNNY   75  37  25 NW22G29   30.00R
$$

NDZ018>021-031>035-040>046-212300-
SOUTHWEST NORTH DAKOTA

CITY           SKY/WX    TMP DP  RH WIND       PRES   REMARKS
BISMARCK       SUNNY     77  43  29 NW22G29   30.02R
DICKINSON      SUNNY     75  41  29 NW16G26   30.08S
GARRISON         N/A     74  39  28 NW22G37   30.02S
HETTINGER ARPT SUNNY     77  40  26 N15G24    30.10F
$$

NDZ004>008-012>016-024-026-027-054-212300-
NORTHEAST NORTH DAKOTA

CITY           SKY/WX    TMP DP  RH WIND       PRES   REMARKS
GRAND FORKS    PTSUNNY   74  56  53 NW8       29.88R
GRND FRKS AFB  CLOUDY    73  55  53 N5        29.89R
DEVILS LAKE    MOSUNNY   72  52  49 NW21G29   29.93S
$$

NDZ022-023-025-028>030-036>039-047>053-212300-
SOUTHEAST NORTH DAKOTA

CITY           SKY/WX    TMP DP  RH WIND       PRES   REMARKS
FARGO          SUNNY     75  60  59 N9        29.86S
JAMESTOWN      SUNNY     74  56  53 NW22G29   29.91R
$$





USA.gov is the U.S. government's official web portal to all federal, state and local government web resources and services.